"startDT [UTC]","vpos","CH4 [ppm]","stdev(CH4) [ppm]","CO2 [ppm]","stdev(CO2) [ppm]","H2O_reported [%]","stdev(H2O_reported)","CavityPressure [torr]","CavityTemp [C]","OutletValve","CH4_dry [ppm]","CO2_dry [ppm]","DasTemp [C]","EtalonTemp [C]","WarmBoxTemp [C]","MPVPosition","T_ECpre [C]","T_EC1 [C]","T_EC2 [C]","p_inlet [hPa]","p_in [hPa]","p_out [hPa]","T_inlet [C]","RH_inlet [%]","dwpt_inlet [C]","T_vent [C]","RH_vent [%]","dwpt_vent [C]","flow_vent [l min-1]","flow_inlet [l min-1]","dwpt_sample [C]","T_room [C]"
2015-09-26 00:00:00,0.0,1.91823,0.00039,389.233,0.034,0.4788,0.0030,140.003,45.000,31547.11664,1.92739,391.506,32.300,45.069,45.000,0.00,0.09,-272.73,-272.79,-3,518,-946,16.3,20.2,-6.6,16.5,20.4,-6.3,5.73,2.08,-6.3,23.2
2015-09-26 00:01:00,0.0,1.91794,0.00040,389.192,0.033,0.4758,0.0024,139.998,45.000,31544.54089,1.92705,391.452,32.283,45.069,45.000,0.00,0.09,-272.74,-272.80,-3,518,-946,16.2,20.1,-6.7,16.5,20.4,-6.3,5.73,2.07,-6.3,23.2
2015-09-26 00:02:00,0.0,1.91770,0.00036,389.204,0.039,0.4775,0.0030,139.999,45.000,31546.89919,1.92685,391.471,32.261,45.069,45.000,0.00,0.09,-272.74,-272.80,-3,518,-946,16.2,20.2,-6.7,16.5,20.3,-6.4,5.73,2.07,-6.3,23.2
2015-09-26 00:03:00,0.0,1.91787,0.00024,389.197,0.034,0.4785,0.0029,140.003,45.000,31547.97740,1.92701,391.467,32.250,45.069,45.000,0.00,0.09,-272.73,-272.79,-3,518,-946,16.2,20.3,-6.6,16.5,20.4,-6.3,5.73,2.06,-6.3,23.2
2015-09-26 00:04:00,0.0,1.91773,0.00037,389.181,0.034,0.4789,0.0028,139.999,45.000,31546.82823,1.92691,391.455,32.250,45.069,45.000,0.00,0.09,-272.73,-272.79,-3,518,-946,16.2,20.3,-6.6,16.5,20.4,-6.3,5.73,2.06,-6.3,23.2
2015-09-26 00:05:00,0.0,1.91790,0.00036,389.206,0.029,0.4763,0.0035,139.999,45.000,31544.17479,1.92700,391.469,32.247,45.069,45.000,0.00,0.09,-272.74,-272.80,-3,518,-946,16.2,20.2,-6.7,16.5,20.4,-6.3,5.73,2.05,-6.3,23.2
2015-09-26 00:06:00,0.0,1.91804,0.00038,389.192,0.027,0.4756,0.0027,139.998,45.000,31544.74959,1.92716,391.449,32.250,45.069,45.000,0.00,0.09,-272.74,-272.79,-3,518,-946,16.2,20.1,-6.7,16.5,20.3,-6.4,5.73,2.04,-6.2,23.2
2015-09-26 00:07:00,0.0,1.91831,0.00037,389.233,0.035,0.4814,0.0022,140.001,45.000,31545.50698,1.92752,391.519,32.250,45.069,45.000,0.00,0.09,-272.73,-272.79,-3,518,-946,16.2,20.3,-6.6,16.5,20.5,-6.3,5.73,2.03,-6.3,23.2
2015-09-26 00:08:00,0.0,1.91789,0.00043,389.211,0.037,0.4753,0.0026,139.999,45.000,31545.13272,1.92697,391.470,32.249,45.069,45.000,0.00,0.09,-272.74,-272.80,-3,518,-946,16.2,20.2,-6.7,16.5,20.4,-6.3,5.73,2.02,-6.3,23.2
2015-09-26 00:09:00,0.0,1.91788,0.00031,389.172,0.023,0.4748,0.0026,139.998,45.000,31544.42061,1.92700,391.426,32.241,45.069,45.000,0.00,0.09,-272.74,-272.80,-3,518,-946,16.2,20.1,-6.7,16.5,20.3,-6.4,5.73,2.01,-6.3,23.1
2015-09-26 00:10:00,0.0,1.91763,0.00041,389.185,0.023,0.4750,0.0025,140.001,45.000,31544.89861,1.92674,391.439,32.241,45.069,45.000,0.00,0.09,-272.73,-272.78,-3,518,-946,16.2,20.1,-6.7,16.5,20.3,-6.4,5.73,2.01,-6.2,23.1
2015-09-26 00:11:00,0.0,1.91802,0.00033,389.180,0.031,0.4760,0.0033,140.001,45.000,31545.07915,1.92712,391.440,32.247,45.069,45.000,0.00,0.09,-272.74,-272.79,-3,518,-946,16.2,20.2,-6.7,16.5,20.3,-6.4,5.73,2.00,-6.3,23.1
2015-09-26 00:12:00,0.0,1.91779,0.00037,389.166,0.034,0.4741,0.0026,140.000,45.000,31544.17320,1.92688,391.416,32.249,45.069,45.000,0.00,0.09,-272.74,-272.79,-3,518,-946,16.2,20.1,-6.7,16.5,20.3,-6.4,5.73,2.00,-6.3,23.1
2015-09-26 00:13:00,0.0,1.91813,0.00057,389.197,0.052,0.4759,0.0034,140.001,45.000,31545.16044,1.92719,391.453,32.250,45.069,45.000,0.00,0.09,-272.73,-272.79,-3,518,-946,16.2,20.2,-6.7,16.5,20.3,-6.4,5.73,1.99,-6.3,23.1
2015-09-26 00:14:00,0.0,1.91842,0.00053,389.222,0.042,0.4814,0.0029,139.999,45.000,31543.77490,1.92766,391.510,32.247,45.069,45.000,0.00,0.09,-272.73,-272.78,-3,518,-946,16.2,20.4,-6.6,16.5,20.5,-6.2,5.73,1.99,-6.3,23.1
2015-09-26 00:15:00,0.0,1.91825,0.00034,389.196,0.024,0.4783,0.0020,139.998,45.000,31545.00869,1.92743,391.467,32.243,45.069,45.000,0.00,0.09,-272.74,-272.80,-3,518,-947,16.2,20.3,-6.6,16.5,20.5,-6.3,5.73,2.00,-6.3,23.1
2015-09-26 00:16:00,0.0,1.91814,0.00037,389.197,0.037,0.4777,0.0027,140.000,45.000,31543.92236,1.92728,391.464,32.248,45.069,45.000,0.00,0.09,-272.73,-272.80,-3,518,-946,16.2,20.2,-6.6,16.5,20.5,-6.3,5.73,2.01,-6.3,23.1
2015-09-26 00:17:00,0.0,1.91824,0.00038,389.228,0.038,0.4792,0.0023,139.999,45.000,31545.88567,1.92741,391.502,32.248,45.069,45.000,0.00,0.09,-272.73,-272.79,-3,518,-946,16.2,20.3,-6.6,16.5,20.5,-6.3,5.73,2.02,-6.3,23.1
2015-09-26 00:18:00,0.0,1.91889,0.00048,389.280,0.036,0.4830,0.0024,139.997,45.000,31545.77636,1.92811,391.575,32.252,45.069,45.000,0.00,0.09,-272.73,-272.80,-3,518,-946,16.2,20.5,-6.5,16.5,20.6,-6.2,5.73,2.02,-6.3,23.1
2015-09-26 00:19:00,0.0,1.91894,0.00058,389.268,0.052,0.4841,0.0020,140.000,45.000,31545.92141,1.92823,391.566,32.254,45.069,45.000,0.00,0.09,-272.74,-272.79,-3,518,-946,16.2,20.5,-6.5,16.4,20.7,-6.1,5.73,2.03,-6.3,23.1
2015-09-26 00:20:00,0.0,1.91901,0.00031,389.251,0.036,0.4840,0.0022,140.000,45.000,31543.97830,1.92826,391.550,32.251,45.069,45.000,0.00,0.09,-272.73,-272.78,-3,518,-946,16.2,20.5,-6.5,16.5,20.7,-6.1,5.73,2.04,-6.2,23.1
2015-09-26 00:21:00,0.0,1.91849,0.00037,389.212,0.042,0.4789,0.0037,140.003,45.000,31546.24283,1.92767,391.488,32.250,45.069,45.000,0.00,0.09,-272.73,-272.79,-3,518,-946,16.2,20.3,-6.6,16.4,20.6,-6.2,5.73,2.05,-6.2,23.1
2015-09-26 00:22:00,0.0,1.91873,0.00028,389.237,0.023,0.4775,0.0021,140.000,45.000,31543.06321,1.92786,391.504,32.247,45.069,45.000,0.00,0.09,-272.74,-272.80,-3,518,-946,16.2,20.2,-6.6,16.4,20.5,-6.3,5.73,2.06,-6.3,23.1
2015-09-26 00:23:00,0.0,1.91925,0.00043,389.270,0.042,0.4781,0.0031,140.004,45.000,31543.28179,1.92839,391.539,32.201,45.069,45.000,0.00,0.09,-272.73,-272.79,-3,518,-947,16.2,20.2,-6.6,16.4,20.5,-6.3,5.73,2.06,-6.2,23.1
2015-09-26 00:24:00,0.0,1.91961,0.00047,389.286,0.038,0.4832,0.0022,139.998,45.000,31542.38628,1.92884,391.581,32.206,45.069,45.000,0.00,0.09,-272.73,-272.79,-3,518,-947,16.2,20.5,-6.5,16.4,20.6,-6.2,5.73,2.07,-6.3,23.1
2015-09-26 00:25:00,0.0,1.91949,0.00047,389.307,0.043,0.4844,0.0025,140.001,45.000,31544.68677,1.92882,391.610,32.199,45.070,45.001,0.00,0.09,-272.73,-272.80,-3,518,-947,16.2,20.5,-6.5,16.4,20.7,-6.2,5.73,2.07,-6.3,23.1
2015-09-26 00:26:00,0.0,1.91916,0.00045,389.296,0.039,0.4798,0.0029,140.001,45.000,31544.84958,1.92837,391.573,32.208,45.070,45.001,0.00,0.09,-272.74,-272.79,-3,518,-946,16.2,20.4,-6.5,16.5,20.7,-6.2,5.73,2.08,-6.3,23.1
2015-09-26 00:27:00,0.0,1.91914,0.00039,389.276,0.046,0.4798,0.0028,140.000,45.000,31544.86694,1.92830,391.556,32.201,45.070,45.000,0.00,0.09,-272.73,-272.78,-3,518,-946,16.2,20.3,-6.6,16.4,20.6,-6.2,5.73,2.07,-6.2,23.1
2015-09-26 00:28:00,0.0,1.91823,0.00033,389.206,0.052,0.4722,0.0040,140.001,45.000,31543.15555,1.92732,391.451,32.201,45.069,45.000,0.00,0.09,-272.74,-272.79,-3,518,-946,16.2,20.0,-6.8,16.4,20.4,-6.4,5.73,2.06,-6.3,23.1
2015-09-26 00:29:00,0.0,1.91847,0.00043,389.211,0.028,0.4688,0.0028,140.001,45.000,31543.69249,1.92743,391.434,32.189,45.069,45.000,0.00,0.09,-272.73,-272.80,-3,518,-946,16.2,19.8,-6.9,16.4,20.1,-6.5,5.73,2.05,-6.3,23.1
2015-09-26 00:30:00,0.0,1.91858,0.00057,389.203,0.052,0.4731,0.0029,139.999,45.000,31542.29111,1.92766,391.449,32.185,45.069,45.000,0.00,0.09,-272.73,-272.80,-3,518,-946,16.2,20.0,-6.8,16.4,20.2,-6.5,5.73,2.04,-6.3,23.1
2015-09-26 00:31:00,0.0,1.91813,0.00039,389.198,0.036,0.4750,0.0026,140.001,45.000,31542.68458,1.92722,391.455,32.187,45.069,45.000,0.00,0.09,-272.73,-272.79,-3,518,-946,16.2,20.1,-6.7,16.4,20.4,-6.4,5.73,2.03,-6.3,23.1
2015-09-26 00:32:00,0.0,1.91768,0.00046,389.135,0.033,0.4687,0.0037,139.999,45.000,31541.84320,1.92666,391.360,32.188,45.069,45.000,0.00,0.09,-272.74,-272.80,-3,518,-946,16.2,19.9,-6.9,16.4,20.2,-6.5,5.73,2.02,-6.3,23.1
2015-09-26 00:33:00,0.0,1.91781,0.00050,389.141,0.037,0.4660,0.0027,139.998,45.000,31540.60902,1.92670,391.352,32.184,45.069,45.000,0.00,0.09,-272.74,-272.79,-3,518,-946,16.2,19.8,-7.0,16.4,20.0,-6.6,5.73,2.01,-5.4,23.1
2015-09-26 00:34:00,0.0,1.91829,0.00048,389.165,0.034,0.4683,0.0023,140.001,45.000,31542.96180,1.92725,391.387,32.187,45.069,45.000,0.00,0.09,-272.73,-272.79,-3,518,-946,16.2,19.8,-6.9,16.4,20.0,-6.6,5.73,2.00,-5.3,23.1
2015-09-26 00:35:00,0.0,1.91784,0.00048,389.133,0.034,0.4674,0.0027,139.998,45.000,31542.63940,1.92680,391.351,32.187,45.069,45.000,0.00,0.09,-272.73,-272.80,-3,518,-946,16.2,19.8,-6.9,16.4,20.0,-6.6,5.73,1.99,-5.4,23.1
2015-09-26 00:36:00,0.0,1.91825,0.00038,389.156,0.031,0.4699,0.0021,139.999,45.000,31542.81718,1.92724,391.386,32.184,45.069,45.000,0.00,0.09,-272.74,-272.79,-3,518,-946,16.2,19.9,-6.9,16.4,20.1,-6.6,5.73,1.99,-5.4,23.1
2015-09-26 00:37:00,0.0,1.91856,0.00045,389.143,0.033,0.4701,0.0023,140.001,45.000,31543.81103,1.92755,391.374,32.188,45.069,45.000,0.00,0.09,-272.73,-272.79,-3,518,-946,16.2,19.9,-6.8,16.4,20.1,-6.5,5.73,2.00,-5.5,23.1
2015-09-26 00:38:00,0.0,1.91780,0.00056,389.130,0.046,0.4665,0.0026,140.000,45.000,31545.59264,1.92672,391.344,32.182,45.069,45.000,0.00,0.09,-272.73,-272.79,-3,518,-946,16.2,19.8,-6.9,16.4,20.1,-6.6,5.73,2.00,-5.6,23.1
2015-09-26 00:39:00,0.0,1.91759,0.00046,389.121,0.036,0.4699,0.0026,140.001,45.000,31546.52467,1.92661,391.350,32.161,45.069,45.000,0.00,0.09,-272.74,-272.79,-3,518,-946,16.2,19.9,-6.9,16.4,20.1,-6.6,5.73,2.00,-5.6,23.1
2015-09-26 00:40:00,0.0,1.91752,0.00042,389.083,0.034,0.4692,0.0034,139.998,45.000,31547.27129,1.92652,391.310,32.134,45.069,45.000,0.00,0.09,-272.73,-272.79,-3,518,-946,16.2,19.9,-6.9,16.4,20.2,-6.5,5.73,2.02,-5.7,23.1
2015-09-26 00:41:00,0.0,1.91759,0.00029,389.083,0.036,0.4644,0.0027,139.999,45.000,31544.23292,1.92647,391.286,32.143,45.069,45.000,0.00,0.09,-272.74,-272.79,-3,518,-946,16.2,19.7,-7.0,16.4,20.0,-6.6,5.73,2.02,-5.7,23.1
2015-09-26 00:42:00,0.0,1.91738,0.00035,389.086,0.025,0.4626,0.0033,140.000,45.000,31545.80597,1.92621,391.280,32.139,45.069,45.000,0.00,0.09,-272.73,-272.80,-3,518,-946,16.1,19.6,-7.1,16.4,19.9,-6.7,5.73,2.04,-5.8,23.1
2015-09-26 00:43:00,0.0,1.91763,0.00035,389.087,0.033,0.4666,0.0022,140.001,45.000,31546.42457,1.92657,391.302,32.166,45.069,45.000,0.00,0.09,-272.73,-272.79,-3,518,-946,16.1,19.8,-7.0,16.4,20.0,-6.6,5.73,2.06,-5.8,23.1
2015-09-26 00:44:00,0.0,1.91745,0.00037,389.061,0.041,0.4615,0.0025,140.000,45.000,31545.62365,1.92631,391.250,32.176,45.069,45.000,0.00,0.09,-272.73,-272.79,-3,518,-946,16.2,19.6,-7.1,16.4,19.9,-6.7,5.73,2.07,-5.9,23.1
2015-09-26 00:45:00,0.0,1.91737,0.00028,389.009,0.036,0.4615,0.0017,140.001,45.000,31545.47729,1.92619,391.198,32.181,45.069,45.000,0.00,0.09,-272.74,-272.79,-3,518,-946,16.2,19.6,-7.1,16.4,19.8,-6.7,5.73,2.07,-5.9,23.1
2015-09-26 00:46:00,0.0,1.91748,0.00033,389.027,0.040,0.4620,0.0017,140.000,45.000,31545.02981,1.92629,391.216,32.183,45.069,45.000,0.00,0.09,-272.74,-272.79,-3,518,-946,16.1,19.6,-7.1,16.4,19.8,-6.7,5.73,2.08,-5.9,23.1
2015-09-26 00:47:00,0.0,1.91743,0.00038,389.022,0.035,0.4665,0.0026,140.000,45.000,31544.21777,1.92640,391.238,32.183,45.069,45.000,0.00,0.09,-272.74,-272.79,-3,518,-946,16.1,19.7,-7.0,16.4,20.0,-6.6,5.73,2.07,-6.0,23.1
2015-09-26 00:48:00,0.0,1.91744,0.00038,389.036,0.031,0.4620,0.0037,139.999,45.000,31543.48898,1.92622,391.225,32.188,45.069,45.000,0.00,0.09,-272.73,-272.79,-3,518,-946,16.1,19.6,-7.1,16.4,19.9,-6.7,5.73,2.08,-6.0,23.1
2015-09-26 00:49:00,0.0,1.91721,0.00038,389.004,0.030,0.4638,0.0044,140.000,45.000,31542.92070,1.92613,391.206,32.188,45.069,45.000,0.00,0.09,-272.74,-272.80,-3,518,-946,16.1,19.7,-7.1,16.4,20.0,-6.6,5.73,2.06,-6.0,23.1
2015-09-26 00:50:00,0.0,1.91728,0.00030,389.001,0.038,0.4653,0.0026,140.000,45.000,31544.68395,1.92615,391.206,32.188,45.069,45.000,0.00,0.09,-272.73,-272.79,-3,518,-946,16.1,19.7,-7.0,16.4,19.9,-6.7,5.73,2.05,-6.0,23.1
2015-09-26 00:51:00,0.0,1.91763,0.00034,389.010,0.032,0.4697,0.0038,139.999,45.000,31543.42943,1.92661,391.238,32.188,45.069,45.000,0.00,0.09,-272.73,-272.79,-3,518,-947,16.1,19.9,-6.9,16.4,20.1,-6.6,5.73,2.04,-6.0,23.1
2015-09-26 00:52:00,0.0,1.91747,0.00040,389.001,0.031,0.4717,0.0032,140.000,45.000,31544.63198,1.92648,391.239,32.190,45.069,45.000,0.00,0.09,-272.74,-272.79,-3,518,-946,16.1,20.0,-6.8,16.4,20.3,-6.4,5.73,2.03,-6.1,23.1
2015-09-26 00:53:00,0.0,1.91724,0.00038,388.983,0.027,0.4733,0.0032,140.000,45.000,31544.92752,1.92632,391.229,32.190,45.069,45.000,0.00,0.09,-272.73,-272.79,-3,518,-946,16.1,20.1,-6.8,16.4,20.3,-6.4,5.73,2.03,-6.1,23.1
2015-09-26 00:54:00,0.0,1.91724,0.00042,388.960,0.036,0.4734,0.0027,140.002,45.000,31545.55118,1.92632,391.206,32.201,45.069,45.000,0.00,0.09,-272.73,-272.79,-3,518,-947,16.1,20.1,-6.8,16.4,20.3,-6.4,5.73,2.01,-6.1,23.1
2015-09-26 00:55:00,0.0,1.91747,0.00054,388.968,0.034,0.4745,0.0029,140.003,45.000,31545.17035,1.92652,391.218,32.191,45.069,45.000,0.00,0.09,-272.74,-272.79,-3,518,-947,16.1,20.2,-6.7,16.4,20.4,-6.4,5.73,2.01,-6.1,23.1
2015-09-26 00:56:00,0.0,1.91727,0.00047,388.966,0.037,0.4740,0.0036,140.001,45.000,31544.69686,1.92640,391.216,32.189,45.069,45.000,0.00,0.09,-272.73,-272.80,-3,518,-946,16.1,20.1,-6.8,16.4,20.4,-6.3,5.73,1.99,-6.1,23.1
2015-09-26 00:57:00,0.0,1.91731,0.00045,388.988,0.045,0.4731,0.0035,140.002,45.000,31544.39838,1.92635,391.233,32.177,45.069,45.000,0.00,0.09,-272.73,-272.79,-3,518,-947,16.1,20.1,-6.8,16.4,20.3,-6.4,5.73,1.99,-6.1,23.1
2015-09-26 00:58:00,0.0,1.91763,0.00046,388.985,0.031,0.4729,0.0031,140.003,45.000,31544.34080,1.92667,391.230,32.148,45.069,45.000,0.00,0.09,-272.73,-272.79,-3,518,-946,16.1,20.1,-6.8,16.4,20.4,-6.4,5.73,2.00,-6.1,23.1
2015-09-26 00:59:00,0.0,1.91704,0.00023,388.969,0.033,0.4703,0.0015,139.997,45.000,31543.00052,1.92603,391.201,32.143,45.069,45.000,0.00,0.09,-272.74,-272.79,-3,518,-946,16.1,20.0,-6.9,16.4,20.2,-6.5,5.73,2.00,-6.2,23.1
2015-09-26 01:00:00,0.0,1.91741,0.00037,388.980,0.031,0.4728,0.0023,140.000,45.000,31543.43965,1.92644,391.222,32.155,45.069,45.000,0.00,0.09,-272.74,-272.79,-3,518,-947,16.1,20.1,-6.8,16.4,20.3,-6.4,5.73,2.00,-6.2,23.1
2015-09-26 01:01:00,0.0,1.91758,0.00044,388.975,0.035,0.4719,0.0055,140.002,45.000,31542.89071,1.92662,391.214,32.170,45.069,45.000,0.00,0.09,-272.73,-272.79,-3,518,-946,16.1,20.0,-6.8,16.4,20.3,-6.4,5.73,2.01,-6.2,23.1
2015-09-26 01:02:00,0.0,1.91774,0.00049,389.016,0.035,0.4733,0.0040,140.002,45.000,31543.69722,1.92677,391.262,32.170,45.069,45.000,0.00,0.09,-272.74,-272.79,-3,518,-946,16.1,20.1,-6.8,16.4,20.3,-6.5,5.73,2.02,-6.2,23.1
2015-09-26 01:03:00,0.0,1.91736,0.00044,388.999,0.040,0.4684,0.0034,140.001,45.000,31542.16050,1.92634,391.222,32.154,45.069,45.000,0.00,0.09,-272.74,-272.79,-3,518,-947,16.1,19.9,-6.9,16.3,20.3,-6.5,5.73,2.03,-6.2,23.1
2015-09-26 01:04:00,0.0,1.91738,0.00027,388.986,0.036,0.4674,0.0028,140.003,45.000,31542.17375,1.92633,391.203,32.166,45.069,45.000,0.00,0.09,-272.73,-272.78,-3,518,-946,16.1,19.8,-7.0,16.4,20.1,-6.6,5.73,2.04,-6.2,23.1
2015-09-26 01:05:00,0.0,1.91745,0.00053,389.012,0.038,0.4695,0.0021,140.001,45.000,31543.89424,1.92642,391.237,32.171,45.069,45.000,0.00,0.09,-272.74,-272.79,-3,518,-946,16.1,19.9,-6.9,16.4,20.1,-6.6,5.73,2.05,-6.2,23.1
2015-09-26 01:06:00,0.0,1.91757,0.00035,389.006,0.037,0.4744,0.0021,139.999,45.000,31541.89979,1.92663,391.258,32.186,45.069,45.000,0.00,0.09,-272.74,-272.79,-3,518,-947,16.1,20.1,-6.8,16.4,20.3,-6.4,5.73,2.06,-6.2,23.1
2015-09-26 01:07:00,0.0,1.91761,0.00050,389.002,0.032,0.4728,0.0021,140.000,45.000,31543.11375,1.92664,391.243,32.186,45.069,45.000,0.00,0.09,-272.73,-272.79,-3,518,-947,16.1,20.1,-6.8,16.4,20.4,-6.4,5.73,2.07,-6.2,23.1
2015-09-26 01:08:00,0.0,1.91767,0.00042,388.984,0.029,0.4751,0.0021,140.001,45.000,31545.93364,1.92681,391.240,32.188,45.069,45.000,0.00,0.09,-272.73,-272.79,-3,518,-947,16.1,20.2,-6.7,16.4,20.4,-6.4,5.73,2.07,-6.2,23.1
2015-09-26 01:09:00,0.0,1.91770,0.00048,388.985,0.024,0.4775,0.0041,140.001,45.000,31548.73626,1.92679,391.250,32.188,45.069,45.000,0.00,0.09,-272.73,-272.80,-3,518,-947,16.1,20.3,-6.7,16.4,20.5,-6.3,5.73,2.07,-6.2,23.1
2015-09-26 01:10:00,0.0,1.91843,0.00034,388.971,0.024,0.4851,0.0018,140.001,45.000,31547.68998,1.92774,391.273,32.204,45.069,45.000,0.00,0.09,-272.73,-272.79,-3,518,-947,16.1,20.6,-6.5,16.4,20.8,-6.1,5.73,2.07,-6.2,23.1
2015-09-26 01:11:00,0.0,1.91843,0.00037,388.987,0.040,0.4818,0.0035,140.002,45.000,31546.31388,1.92763,391.272,32.230,45.069,45.000,0.00,0.09,-272.73,-272.79,-3,518,-947,16.2,20.5,-6.5,16.4,20.8,-6.2,5.73,2.07,-6.2,23.1
2015-09-26 01:12:00,0.0,1.91845,0.00048,388.985,0.028,0.4850,0.0024,139.998,45.000,31546.08067,1.92774,391.288,32.228,45.069,45.000,0.00,0.09,-272.74,-272.80,-3,518,-947,16.1,20.6,-6.5,16.4,20.8,-6.1,5.73,2.06,-6.2,23.1
2015-09-26 01:13:00,0.0,1.91829,0.00039,388.987,0.026,0.4806,0.0048,140.001,45.000,31546.17570,1.92754,391.269,32.242,45.069,45.000,0.00,0.09,-272.74,-272.79,-3,518,-947,16.1,20.4,-6.6,16.4,20.8,-6.1,5.73,2.05,-6.3,23.1
2015-09-26 01:14:00,0.0,1.91810,0.00044,388.987,0.024,0.4764,0.0019,140.000,45.000,31547.13475,1.92721,391.247,32.248,45.069,45.000,0.00,0.09,-272.73,-272.79,-3,518,-947,16.1,20.3,-6.7,16.4,20.6,-6.3,5.73,2.05,-6.2,23.1
2015-09-26 01:15:00,0.0,1.91856,0.00046,388.997,0.039,0.4818,0.0020,140.001,45.000,31548.89771,1.92776,391.282,32.238,45.069,45.000,0.00,0.09,-272.73,-272.79,-3,518,-947,16.1,20.4,-6.6,16.4,20.7,-6.2,5.73,2.03,-6.2,23.1
2015-09-26 01:16:00,0.0,1.91846,0.00048,389.043,0.037,0.4751,0.0019,139.999,45.000,31546.04818,1.92757,391.298,32.225,45.069,45.000,0.00,0.09,-272.74,-272.79,-3,518,-947,16.1,20.2,-6.7,16.4,20.6,-6.3,5.73,2.02,-6.2,23.1
2015-09-26 01:17:00,0.0,1.91816,0.00048,389.062,0.029,0.4694,0.0036,140.000,45.000,31546.25958,1.92713,391.287,32.233,45.069,45.000,0.00,0.09,-272.73,-272.78,-3,518,-947,16.1,20.0,-6.9,16.4,20.3,-6.4,5.73,2.01,-6.3,23.1
2015-09-26 01:18:00,0.0,1.91837,0.00052,389.046,0.039,0.4693,0.0027,140.002,45.000,31544.68395,1.92734,391.273,32.241,45.069,45.000,0.00,0.09,-272.73,-272.79,-3,518,-947,16.1,19.9,-6.9,16.4,20.2,-6.5,5.73,2.00,-6.2,23.1
2015-09-26 01:19:00,0.0,1.91853,0.00032,389.059,0.041,0.4689,0.0036,140.001,45.000,31543.78399,1.92755,391.287,32.242,45.069,45.000,0.00,0.09,-272.74,-272.80,-3,518,-947,16.1,19.9,-6.9,16.4,20.2,-6.5,5.73,2.00,-6.2,23.1
2015-09-26 01:20:00,0.0,1.91839,0.00028,389.057,0.030,0.4687,0.0035,140.000,45.000,31544.05251,1.92734,391.278,32.249,45.069,45.000,0.00,0.09,-272.74,-272.79,-3,518,-947,16.1,19.9,-6.9,16.4,20.2,-6.5,5.73,1.99,-6.3,23.1
2015-09-26 01:21:00,0.0,1.91863,0.00027,389.085,0.034,0.4703,0.0022,140.000,45.000,31544.55524,1.92763,391.316,32.225,45.069,45.000,0.00,0.09,-272.73,-272.79,-3,518,-947,16.1,20.0,-6.9,16.4,20.2,-6.5,5.73,1.99,-6.3,23.1
2015-09-26 01:22:00,0.0,1.91874,0.00056,389.094,0.036,0.4741,0.0034,139.998,45.000,31542.40364,1.92782,391.344,32.205,45.069,45.000,0.00,0.09,-272.73,-272.79,-3,517,-947,16.1,20.1,-6.8,16.4,20.4,-6.4,5.73,1.99,-6.3,23.1
2015-09-26 01:23:00,0.0,1.91857,0.00035,389.070,0.029,0.4699,0.0043,139.996,45.000,31541.83629,1.92755,391.301,32.190,45.069,45.000,0.00,0.09,-272.73,-272.80,-3,518,-947,16.1,20.0,-6.9,16.4,20.3,-6.5,5.73,2.00,-6.2,23.1
2015-09-26 01:24:00,0.0,1.91870,0.00031,389.065,0.027,0.4754,0.0024,140.002,45.000,31544.01933,1.92780,391.320,32.188,45.069,45.000,0.00,0.09,-272.73,-272.78,-3,518,-947,16.1,20.2,-6.7,16.4,20.4,-6.4,5.73,2.02,-6.3,23.1
2015-09-26 01:25:00,0.0,1.91867,0.00030,389.074,0.034,0.4713,0.0033,139.998,45.000,31542.01307,1.92771,391.312,32.188,45.070,45.000,0.00,0.09,-272.74,-272.79,-3,518,-947,16.1,20.1,-6.8,16.4,20.4,-6.4,5.73,2.03,-6.3,23.1
2015-09-26 01:26:00,0.0,1.91902,0.00032,389.095,0.040,0.4700,0.0030,140.001,45.000,31542.73989,1.92802,391.325,32.190,45.069,45.000,0.00,0.09,-272.74,-272.80,-3,518,-947,16.1,19.9,-6.9,16.4,20.2,-6.5,5.73,2.04,-6.3,23.1
2015-09-26 01:27:00,0.0,1.91907,0.00029,389.099,0.044,0.4683,0.0033,140.000,45.000,31541.96144,1.92803,391.320,32.208,45.070,45.000,0.00,0.09,-272.74,-272.79,-3,518,-947,16.1,19.9,-6.9,16.4,20.2,-6.5,5.73,2.05,-6.3,23.1
2015-09-26 01:28:00,0.0,1.91920,0.00036,389.110,0.028,0.4665,0.0062,139.998,45.000,31539.50716,1.92815,391.324,32.204,45.069,45.000,0.00,0.09,-272.73,-272.78,-3,517,-947,16.1,19.8,-7.0,16.4,20.1,-6.6,5.73,2.07,-6.2,23.1
2015-09-26 01:29:00,0.0,1.91929,0.00041,389.125,0.028,0.4620,0.0032,140.000,45.000,31539.60679,1.92811,391.316,32.199,45.069,45.000,0.00,0.09,-272.74,-272.79,-3,518,-947,16.1,19.6,-7.1,16.3,19.9,-6.7,5.73,2.07,-6.3,23.1
2015-09-26 01:30:00,0.0,1.91914,0.00052,389.104,0.024,0.4629,0.0044,139.999,45.000,31539.85824,1.92801,391.301,32.203,45.069,45.000,0.00,0.09,-272.74,-272.79,-3,518,-946,16.1,19.6,-7.1,16.4,20.0,-6.7,5.73,2.09,-6.3,23.1
2015-09-26 01:31:00,0.0,1.91930,0.00046,389.070,0.039,0.4683,0.0035,140.000,45.000,31542.91296,1.92829,391.293,32.196,45.069,45.000,0.00,0.09,-272.73,-272.78,-3,518,-947,16.1,19.8,-7.0,16.4,20.0,-6.6,5.73,2.08,-6.3,23.1
2015-09-26 01:32:00,0.0,1.91890,0.00051,389.075,0.028,0.4626,0.0028,140.003,45.000,31544.67672,1.92777,391.267,32.192,45.069,45.000,0.00,0.09,-272.74,-272.80,-3,518,-947,16.1,19.6,-7.1,16.4,20.0,-6.7,5.73,2.07,-6.3,23.1
2015-09-26 01:33:00,0.0,1.91884,0.00032,389.061,0.044,0.4600,0.0025,139.999,45.000,31545.46295,1.92763,391.244,32.195,45.069,45.000,0.00,0.09,-272.74,-272.80,-3,518,-946,16.1,19.5,-7.2,16.4,19.9,-6.7,5.73,2.06,-6.3,23.1
2015-09-26 01:34:00,0.0,1.91940,0.00024,389.095,0.027,0.4623,0.0041,139.998,45.000,31542.67237,1.92823,391.287,32.210,45.069,45.000,0.00,0.09,-272.73,-272.79,-3,518,-947,16.1,19.6,-7.1,16.4,19.8,-6.8,5.73,2.05,-6.3,23.1
2015-09-26 01:35:00,0.0,1.91948,0.00042,389.109,0.032,0.4643,0.0028,140.000,45.000,31541.79498,1.92838,391.312,32.234,45.069,45.000,0.00,0.09,-272.73,-272.79,-3,518,-947,16.1,19.7,-7.1,16.4,20.0,-6.7,5.73,2.03,-6.3,23.1
2015-09-26 01:36:00,0.0,1.91923,0.00044,389.092,0.037,0.4592,0.0031,140.000,45.000,31543.21972,1.92806,391.269,32.219,45.069,45.000,0.00,0.09,-272.74,-272.80,-3,518,-947,16.1,19.5,-7.2,16.4,19.8,-6.7,5.73,2.01,-6.3,23.1
2015-09-26 01:37:00,0.0,1.91901,0.00034,389.121,0.023,0.4560,0.0024,139.997,45.000,31542.27030,1.92774,391.285,32.216,45.069,45.000,0.00,0.09,-272.73,-272.79,-3,518,-947,16.1,19.3,-7.3,16.4,19.7,-6.8,5.73,2.00,-6.3,23.1
2015-09-26 01:38:00,0.0,1.91920,0.00047,389.124,0.035,0.4606,0.0022,140.001,45.000,31544.93173,1.92799,391.309,32.195,45.069,45.000,0.00,0.09,-272.73,-272.79,-3,518,-947,16.2,19.5,-7.1,16.4,19.7,-6.8,5.73,1.99,-6.3,23.1
2015-09-26 01:39:00,0.0,1.91936,0.00037,389.110,0.034,0.4615,0.0026,140.002,45.000,31544.87876,1.92818,391.298,32.188,45.069,45.000,0.00,0.09,-272.74,-272.80,-3,518,-947,16.2,19.6,-7.1,16.4,19.9,-6.7,5.73,1.99,-6.3,23.1
2015-09-26 01:40:00,0.0,1.91949,0.00044,389.078,0.042,0.4691,0.0033,140.001,45.000,31544.99503,1.92850,391.306,32.184,45.069,45.000,0.00,0.09,-272.74,-272.80,-3,518,-947,16.2,19.9,-6.9,16.4,20.1,-6.6,5.73,1.99,-6.3,23.1
2015-09-26 01:41:00,0.0,1.91908,0.00038,389.080,0.038,0.4677,0.0033,140.001,45.000,31547.05823,1.92802,391.297,32.186,45.069,45.000,0.00,0.09,-272.73,-272.79,-3,518,-947,16.2,19.8,-6.9,16.4,20.1,-6.6,5.73,2.00,-6.2,23.1
2015-09-26 01:42:00,0.0,1.91971,0.00049,389.072,0.040,0.4761,0.0035,140.002,45.000,31547.12849,1.92885,391.332,32.188,45.069,45.000,0.00,0.09,-272.74,-272.79,-3,518,-947,16.2,20.1,-6.7,16.4,20.3,-6.4,5.73,2.01,-6.3,23.1
2015-09-26 01:43:00,0.0,1.91918,0.00042,389.050,0.029,0.4753,0.0036,140.004,45.000,31547.75886,1.92827,391.303,32.196,45.069,45.000,0.00,0.09,-272.74,-272.79,-3,518,-947,16.2,20.2,-6.7,16.4,20.5,-6.3,5.73,2.02,-6.3,23.1
2015-09-26 01:44:00,0.0,1.91964,0.00047,389.043,0.030,0.4807,0.0030,139.998,45.000,31544.43318,1.92886,391.325,32.216,45.069,45.000,0.00,0.09,-272.74,-272.79,-3,518,-947,16.2,20.4,-6.6,16.4,20.6,-6.2,5.73,2.03,-6.3,23.1
2015-09-26 01:45:00,0.0,1.91968,0.00041,389.028,0.043,0.4821,0.0025,139.997,45.000,31542.72450,1.92892,391.317,32.239,45.069,45.000,0.00,0.09,-272.74,-272.78,-3,518,-947,16.2,20.4,-6.6,16.4,20.7,-6.2,5.73,2.05,-6.3,23.1